| time (UTC) | temp F | wind direction | speed knots | gust knots | rain 1hr in | rain 24hr in | rain mn in | humidity % | barometer mb |
| 20260906120510 | 72 | 176 | 0.0 | 0.0 | 0.00 | 0.00 | 0.00 | 88 | 1013.7 |
| 20260906120017 | 72 | 176 | 0.0 | 0.0 | 0.00 | 0.00 | 0.00 | 87 | 1013.5 |
| 20260906115513 | 72 | 176 | 0.0 | 0.0 | 0.00 | 0.00 | 0.00 | 87 | 1013.5 |
| 20260906115013 | 72 | 176 | 0.0 | 1.7 | 0.00 | 0.00 | 0.00 | 87 | 1013.4 |
| 20260906114526 | 72 | 176 | 0.0 | 1.7 | 0.00 | 0.00 | 0.00 | 88 | 1013.4 |
| 20260906114013 | 72 | 176 | 0.0 | 1.7 | 0.00 | 0.00 | 0.00 | 87 | 1013.2 |
| 20260906113504 | 72 | 176 | 0.0 | 1.7 | 0.00 | 0.00 | 0.00 | 87 | 1013.3 |
| 20260906113008 | 72 | 176 | 0.0 | 1.7 | 0.00 | 0.00 | 0.00 | 87 | 1013.3 |
| 20260906112504 | 72 | 176 | 0.0 | 1.7 | 0.00 | 0.00 | 0.00 | 87 | 1013.1 |
| 20260906112004 | 72 | 176 | 0.0 | 1.7 | 0.00 | 0.00 | 0.00 | 87 | 1013.1 |
| 20260906111522 | 72 | 176 | 0.0 | 1.7 | 0.00 | 0.00 | 0.00 | 87 | 1013.0 |
| 20260906111006 | 72 | 176 | 0.0 | 0.0 | 0.00 | 0.00 | 0.00 | 87 | 1012.9 |
| 20260906110507 | 72 | 176 | 0.0 | 1.7 | 0.00 | 0.00 | 0.00 | 87 | 1012.9 |
| 20260906110018 | 72 | 176 | 0.0 | 1.7 | 0.00 | 0.00 | 0.00 | 86 | 1012.8 |
| 20260906105510 | 72 | 176 | 0.0 | 0.9 | 0.00 | 0.00 | 0.00 | 86 | 1012.8 |
| 20260906105014 | 72 | 176 | 0.0 | 1.7 | 0.00 | 0.00 | 0.00 | 86 | 1012.9 |
| 20260906104530 | 72 | 176 | 0.0 | 1.7 | 0.00 | 0.00 | 0.00 | 86 | 1012.9 |
| 20260906104014 | 73 | 176 | 0.0 | 1.7 | 0.00 | 0.00 | 0.00 | 86 | 1012.8 |
| 20260906103514 | 73 | 176 | 0.0 | 1.7 | 0.00 | 0.00 | 0.00 | 86 | 1012.8 |
| 20260906103029 | 73 | 176 | 0.0 | 1.7 | 0.00 | 0.00 | 0.00 | 85 | 1012.7 |
| 20260906102505 | 73 | 176 | 0.0 | 1.7 | 0.00 | 0.00 | 0.00 | 85 | 1012.8 |
| 20260906102003 | 73 | 176 | 0.0 | 1.7 | 0.00 | 0.00 | 0.00 | 85 | 1012.8 |
| 20260906101510 | 73 | 176 | 0.0 | 1.7 | 0.00 | 0.00 | 0.00 | 85 | 1012.8 |
| 20260906101005 | 73 | 176 | 0.0 | 1.7 | 0.00 | 0.00 | 0.00 | 84 | 1012.8 |
| 20260906100507 | 73 | 176 | 0.0 | 1.7 | 0.00 | 0.00 | 0.00 | 84 | 1012.9 |
| 20260906100014 | 73 | 176 | 0.0 | 1.7 | 0.00 | 0.00 | 0.00 | 84 | 1012.8 |
| 20260906095510 | 74 | 176 | 0.0 | 1.7 | 0.00 | 0.00 | 0.00 | 84 | 1012.9 |
| 20260906095014 | 74 | 176 | 0.0 | 1.7 | 0.00 | 0.00 | 0.00 | 84 | 1012.8 |
| 20260906094621 | 74 | 176 | 0.0 | 1.7 | 0.00 | 0.00 | 0.00 | 83 | 1012.8 |
| 20260906094013 | 74 | 176 | 0.0 | 1.7 | 0.00 | 0.00 | 0.00 | 83 | 1012.7 |
| 20260906093514 | 74 | 176 | 0.0 | 1.7 | 0.00 | 0.00 | 0.00 | 83 | 1012.7 |
| 20260906093026 | 74 | 176 | 0.0 | 1.7 | 0.00 | 0.00 | 0.00 | 83 | 1012.7 |
| 20260906092516 | 74 | 176 | 0.0 | 1.7 | 0.00 | 0.00 | 0.00 | 82 | 1012.5 |
| 20260906092014 | 74 | 176 | 0.0 | 1.7 | 0.00 | 0.00 | 0.00 | 81 | 1012.5 |
| 20260906091507 | 74 | 176 | 0.0 | 1.7 | 0.00 | 0.00 | 0.00 | 81 | 1012.7 |
| 20260906091004 | 75 | 176 | 0.0 | 1.7 | 0.00 | 0.00 | 0.00 | 80 | 1012.6 |
| 20260906090503 | 75 | 176 | 0.0 | 1.7 | 0.00 | 0.00 | 0.00 | 80 | 1012.5 |
| 20260906090012 | 75 | 194 | 0.0 | 1.7 | 0.00 | 0.00 | 0.00 | 80 | 1012.6 |
| 20260906085508 | 75 | 210 | 0.9 | 1.7 | 0.00 | 0.00 | 0.00 | 80 | 1012.6 |
| 20260906085010 | 75 | 183 | 0.9 | 1.7 | 0.00 | 0.00 | 0.00 | 79 | 1012.7 |
| 20260906084518 | 75 | 168 | 0.9 | 1.7 | 0.00 | 0.00 | 0.00 | 79 | 1012.6 |
| 20260906084013 | 75 | 164 | 0.9 | 2.6 | 0.00 | 0.00 | 0.00 | 79 | 1012.6 |
| 20260906083513 | 75 | 208 | 0.9 | 3.5 | 0.00 | 0.00 | 0.00 | 79 | 1012.6 |
| 20260906083033 | 76 | 212 | 0.9 | 4.3 | 0.00 | 0.00 | 0.00 | 79 | 1012.7 |
| 20260906082515 | 76 | 202 | 1.7 | 4.3 | 0.00 | 0.00 | 0.00 | 79 | 1012.6 |
| 20260906082014 | 76 | 203 | 1.7 | 3.5 | 0.00 | 0.00 | 0.00 | 79 | 1012.4 |
| 20260906081527 | 75 | 204 | 0.9 | 3.5 | 0.00 | 0.00 | 0.00 | 79 | 1012.6 |
| 20260906081016 | 76 | 191 | 0.9 | 3.5 | 0.00 | 0.00 | 0.00 | 79 | 1012.5 |
| 20260906080516 | 75 | 209 | 0.9 | 2.6 | 0.00 | 0.00 | 0.00 | 79 | 1012.3 |
| 20260906080022 | 76 | 158 | 0.9 | 1.7 | 0.00 | 0.00 | 0.00 | 79 | 1012.4 |
| 20260906075509 | 75 | 183 | 0.9 | 2.6 | 0.00 | 0.00 | 0.00 | 79 | 1012.5 |
| 20260906075006 | 75 | 175 | 0.9 | 2.6 | 0.00 | 0.00 | 0.00 | 79 | 1012.4 |
| 20260906074516 | 75 | 150 | 0.9 | 1.7 | 0.00 | 0.00 | 0.00 | 79 | 1012.5 |
| 20260906074011 | 75 | 218 | 0.9 | 7.0 | 0.00 | 0.00 | 0.00 | 79 | 1012.6 |
| 20260906073511 | 75 | 203 | 2.6 | 7.0 | 0.00 | 0.00 | 0.00 | 79 | 1012.6 |
| 20260906073022 | 75 | 251 | 2.6 | 5.2 | 0.00 | 0.00 | 0.00 | 79 | 1012.8 |
| 20260906072511 | 75 | 236 | 1.7 | 4.3 | 0.00 | 0.00 | 0.00 | 78 | 1012.9 |
| 20260906072015 | 76 | 162 | 0.9 | 5.2 | 0.00 | 0.00 | 0.00 | 78 | 1012.8 |
| 20260906071529 | 75 | 139 | 0.9 | 5.2 | 0.00 | 0.00 | 0.00 | 78 | 1013.0 |
| 20260906071018 | 75 | 191 | 0.9 | 1.7 | 0.00 | 0.00 | 0.00 | 77 | 1013.0 |
| 20260906070515 | 76 | 180 | 0.9 | 1.7 | 0.00 | 0.00 | 0.00 | 77 | 1013.0 |
| 20260906070030 | 76 | 178 | 0.9 | 1.7 | 0.00 | 0.00 | 0.00 | 77 | 1013.1 |
| 20260906065517 | 76 | 224 | 0.0 | 1.7 | 0.00 | 0.00 | 0.00 | 76 | 1013.1 |
| 20260906065006 | 76 | 199 | 0.9 | 1.7 | 0.00 | 0.00 | 0.00 | 76 | 1013.0 |
| 20260906064511 | 76 | 217 | 0.0 | 1.7 | 0.00 | 0.00 | 0.00 | 76 | 1013.0 |
| 20260906064009 | 76 | 116 | 0.0 | 1.7 | 0.00 | 0.00 | 0.00 | 1013.0 | |
| 20260906063510 | 76 | 164 | 0.9 | 1.7 | 0.00 | 0.00 | 0.00 | 74 | 1013.0 |
| 20260906063021 | 77 | 145 | 0.0 | 1.7 | 0.00 | 0.00 | 0.00 | 74 | 1013.0 |
| 20260906062513 | 77 | 174 | 0.0 | 1.7 | 0.00 | 0.00 | 0.00 | 74 | 1013.1 |
| 20260906062011 | 77 | 89 | 0.0 | 1.7 | 0.00 | 0.00 | 0.00 | 74 | 1013.1 |
| 20260906061526 | 77 | 105 | 0.0 | 1.7 | 0.00 | 0.00 | 0.00 | 74 | 1013.4 |
| 20260906061015 | 77 | 116 | 0.0 | 1.7 | 0.00 | 0.00 | 0.00 | 73 | 1013.6 |
| 20260906060513 | 77 | 116 | 0.0 | 1.7 | 0.00 | 0.00 | 0.00 | 1013.5 | |
| 20260906060030 | 78 | 126 | 0.0 | 1.7 | 0.00 | 0.00 | 0.00 | 1013.4 | |
| 20260906055515 | 78 | 99 | 0.0 | 1.7 | 0.00 | 0.00 | 0.00 | 73 | 1013.5 |
| 20260906055017 | 78 | 141 | 0.0 | 2.6 | 0.00 | 0.00 | 0.00 | 73 | 1013.7 |
| 20260906054539 | 78 | 110 | 0.9 | 2.6 | 0.00 | 0.00 | 0.00 | 73 | 1013.9 |
| 20260906054010 | 78 | 124 | 0.9 | 4.3 | 0.00 | 0.00 | 0.00 | 73 | 1014.0 |
| 20260906053514 | 78 | 120 | 2.6 | 4.3 | 0.00 | 0.00 | 0.00 | 73 | 1014.1 |
| 20260906053016 | 79 | 68 | 0.9 | 4.3 | 0.00 | 0.00 | 0.00 | 73 | 1014.2 |
| 20260906052512 | 79 | 93 | 0.9 | 5.2 | 0.00 | 0.00 | 0.00 | 71 | 1014.1 |
| 20260906052014 | 80 | 119 | 1.7 | 5.2 | 0.00 | 0.00 | 0.00 | 70 | 1013.9 |
| 20260906051527 | 80 | 101 | 0.9 | 5.2 | 0.00 | 0.00 | 0.00 | 69 | 1013.9 |
| 20260906051011 | 81 | 83 | 0.9 | 3.5 | 0.00 | 0.00 | 0.00 | 68 | 1013.9 |
| 20260906050513 | 81 | 87 | 0.9 | 4.3 | 0.00 | 0.00 | 0.00 | 68 | 1014.1 |
| 20260906050035 | 81 | 130 | 0.0 | 4.3 | 0.00 | 0.00 | 0.00 | 67 | 1013.7 |
| 20260906045514 | 81 | 66 | 0.9 | 3.5 | 0.00 | 0.00 | 0.00 | 67 | 1013.7 |
| 20260906045014 | 81 | 236 | 0.9 | 1.7 | 0.00 | 0.00 | 0.00 | 67 | 1013.9 |
| 20260906044531 | 81 | 31 | 0.9 | 1.7 | 0.00 | 0.00 | 0.00 | 67 | 1013.4 |
| 20260906044020 | 82 | 83 | 0.0 | 1.7 | 0.00 | 0.00 | 0.00 | 67 | 1012.9 |
| 20260906043518 | 82 | 137 | 0.0 | 1.7 | 0.00 | 0.00 | 0.00 | 67 | 1012.9 |
| 20260906043027 | 82 | 190 | 0.0 | 2.6 | 0.00 | 0.00 | 0.00 | 69 | 1012.9 |
| 20260906042509 | 82 | 133 | 0.9 | 2.6 | 0.00 | 0.00 | 0.00 | 69 | 1013.0 |
| 20260906042011 | 82 | 104 | 0.9 | 3.5 | 0.00 | 0.00 | 0.00 | 68 | 1013.1 |
| 20260906041520 | 82 | 97 | 0.9 | 3.5 | 0.00 | 0.00 | 0.00 | 68 | 1013.1 |
| 20260906041015 | 82 | 118 | 0.9 | 2.6 | 0.00 | 0.00 | 0.00 | 68 | 1013.2 |
| 20260906040516 | 82 | 105 | 0.9 | 2.6 | 0.00 | 0.00 | 0.00 | 68 | 1013.3 |
| 20260906040026 | 82 | 108 | 0.0 | 1.7 | 0.00 | 0.00 | 0.00 | 68 | 1013.3 |
| 20260906035514 | 82 | 85 | 0.0 | 1.7 | 0.00 | 0.00 | 0.00 | 68 | 1013.3 |
| 20260906035016 | 82 | 99 | 0.9 | 1.7 | 0.00 | 0.00 | 0.00 | 67 | 1013.2 |
| 20260906034530 | 82 | 95 | 0.0 | 2.6 | 0.00 | 0.00 | 0.00 | 66 | 1013.4 |
| 20260906034015 | 82 | 128 | 0.0 | 2.6 | 0.00 | 0.00 | 0.00 | 66 | 1013.5 |
| 20260906033518 | 82 | 345 | 0.9 | 2.6 | 0.00 | 0.00 | 0.00 | 66 | 1013.3 |
| 20260906033031 | 82 | 83 | 0.9 | 1.7 | 0.00 | 0.00 | 0.00 | 68 | 1013.4 |
| 20260906032515 | 82 | 120 | 0.0 | 1.7 | 0.00 | 0.00 | 0.00 | 67 | 1012.9 |
| 20260906032015 | 82 | 120 | 0.0 | 0.0 | 0.00 | 0.00 | 0.00 | 66 | 1012.5 |
| 20260906031518 | 82 | 120 | 0.0 | 1.7 | 0.00 | 0.00 | 0.00 | 66 | 1012.4 |
| 20260906031012 | 82 | 120 | 0.0 | 1.7 | 0.00 | 0.00 | 0.00 | 66 | 1012.6 |
| 20260906030512 | 82 | 95 | 0.0 | 1.7 | 0.00 | 0.00 | 0.00 | 66 | 1012.8 |
| 20260906030027 | 82 | 89 | 0.0 | 1.7 | 0.00 | 0.00 | 0.00 | 67 | 1012.8 |
| 20260906025518 | 82 | 89 | 0.0 | 1.7 | 0.00 | 0.00 | 0.00 | 67 | 1012.7 |
| 20260906025017 | 82 | 89 | 0.9 | 1.7 | 0.00 | 0.00 | 0.00 | 67 | 1012.6 |
| 20260906024530 | 82 | 18 | 0.0 | 0.9 | 0.00 | 0.00 | 0.00 | 66 | 1012.6 |
| 20260906024016 | 82 | 58 | 0.0 | 0.0 | 0.00 | 0.00 | 0.00 | 66 | 1012.5 |
| 20260906023517 | 82 | 58 | 0.0 | 1.7 | 0.00 | 0.00 | 0.00 | 65 | 1012.3 |
| 20260906023042 | 82 | 58 | 0.0 | 1.7 | 0.00 | 0.00 | 0.00 | 66 | 1012.3 |
| 20260906022515 | 83 | 58 | 0.0 | 1.7 | 0.00 | 0.00 | 0.00 | 63 | 1012.3 |
| 20260906022021 | 83 | 360 | 0.0 | 2.6 | 0.00 | 0.00 | 0.00 | 64 | 1012.4 |
| 20260906021532 | 82 | 339 | 1.7 | 2.6 | 0.00 | 0.00 | 0.00 | 64 | 1012.3 |
| 20260906021020 | 82 | 97 | 0.9 | 2.6 | 0.00 | 0.00 | 0.00 | 65 | 1012.3 |
| 20260906020512 | 82 | 18 | 0.9 | 1.7 | 0.00 | 0.00 | 0.00 | 65 | 1011.8 |
| 20260906020023 | 82 | 167 | 0.0 | 1.7 | 0.00 | 0.00 | 0.00 | 64 | 1011.6 |
| 20260906015513 | 82 | 167 | 0.0 | 1.7 | 0.00 | 0.00 | 0.00 | 64 | 1011.4 |
| 20260906015015 | 82 | 167 | 0.0 | 1.7 | 0.00 | 0.00 | 0.00 | 63 | 1011.4 |
| 20260906014528 | 83 | 167 | 0.0 | 1.7 | 0.00 | 0.00 | 0.00 | 63 | 1011.4 |
| 20260906014015 | 83 | 167 | 0.0 | 1.7 | 0.00 | 0.00 | 0.00 | 62 | 1011.5 |
| 20260906013516 | 83 | 89 | 0.0 | 1.7 | 0.00 | 0.00 | 0.00 | 60 | 1011.5 |
| 20260906013046 | 84 | 79 | 0.0 | 1.7 | 0.00 | 0.00 | 0.00 | 59 | 1011.5 |
| 20260906012520 | 84 | 79 | 0.0 | 1.7 | 0.00 | 0.00 | 0.00 | 59 | 1011.7 |
| 20260906012020 | 85 | 79 | 0.0 | 1.7 | 0.00 | 0.00 | 0.00 | 59 | 1011.8 |
| 20260906011540 | 85 | 93 | 0.0 | 2.6 | 0.00 | 0.00 | 0.00 | 57 | 1011.8 |
| 20260906011018 | 85 | 66 | 0.0 | 2.6 | 0.00 | 0.00 | 0.00 | 57 | 1011.7 |
| 20260906010517 | 85 | 164 | 0.9 | 2.6 | 0.00 | 0.00 | 0.00 | 56 | 1011.7 |
| 20260906010039 | 85 | 197 | 0.0 | 1.7 | 0.00 | 0.00 | 0.00 | 57 | 1011.7 |
| 20260906005514 | 85 | 168 | 0.9 | 1.7 | 0.00 | 0.00 | 0.00 | 58 | 1011.8 |
| 20260906005013 | 85 | 184 | 0.0 | 1.7 | 0.00 | 0.00 | 0.00 | 58 | 1011.7 |
| 20260906004525 | 85 | 89 | 0.0 | 1.7 | 0.00 | 0.00 | 0.00 | 57 | 1011.6 |
| 20260906004012 | 86 | 104 | 0.9 | 1.7 | 0.00 | 0.00 | 0.00 | 57 | 1011.6 |
| 20260906003516 | 86 | 79 | 0.9 | 1.7 | 0.00 | 0.00 | 0.00 | 56 | 1011.8 |
| 20260906003030 | 86 | 84 | 0.9 | 2.6 | 0.00 | 0.00 | 0.00 | 55 | 1011.9 |
| 20260906002517 | 87 | 103 | 0.9 | 4.3 | 0.00 | 0.00 | 0.00 | 54 | 1011.8 |
| 20260906002018 | 87 | 85 | 0.0 | 8.7 | 0.00 | 0.00 | 0.00 | 54 | 1012.1 |
| 20260906001535 | 88 | 89 | 2.6 | 8.7 | 0.00 | 0.00 | 0.00 | 52 | 1012.1 |
| 20260906001016 | 89 | 56 | 3.5 | 8.7 | 0.00 | 0.00 | 0.00 | 54 | 1012.0 |
| 20260906000516 | 91 | 39 | 0.9 | 3.5 | 0.00 | 0.00 | 0.00 | 55 | 1011.9 |
| 20260906000049 | 92 | 76 | 0.9 | 1.7 | 0.00 | 0.00 | 0.00 | 55 | 1011.9 |
| 20260905235510 | 92 | 22 | 0.0 | 1.7 | 0.00 | 0.00 | 0.00 | 54 | 1011.5 |
| 20260905235015 | 93 | 110 | 0.0 | 1.7 | 0.00 | 0.00 | 0.00 | 53 | 1011.4 |
| 20260905234523 | 93 | 110 | 0.0 | 2.6 | 0.00 | 0.00 | 0.00 | 52 | 1011.4 |
| 20260905234014 | 93 | 110 | 0.9 | 2.6 | 0.00 | 0.00 | 0.00 | 51 | 1011.3 |
| 20260905233514 | 94 | 84 | 0.9 | 1.7 | 0.00 | 0.00 | 0.00 | 50 | 1011.4 |
| 20260905233025 | 95 | 107 | 0.9 | 5.2 | 0.00 | 0.00 | 0.00 | 49 | 1011.3 |
| 20260905232513 | 96 | 343 | 0.0 | 5.2 | 0.00 | 0.00 | 0.00 | 46 | 1011.1 |
| 20260905232016 | 97 | 264 | 2.6 | 5.2 | 0.00 | 0.00 | 0.00 | 44 | 1011.2 |
| 20260905231530 | 97 | 267 | 0.9 | 3.5 | 0.00 | 0.00 | 0.00 | 42 | 1011.1 |
| 20260905231016 | 97 | 255 | 1.7 | 4.3 | 0.00 | 0.00 | 0.00 | 42 | 1011.1 |
| 20260905230515 | 98 | 251 | 0.9 | 4.3 | 0.00 | 0.00 | 0.00 | 42 | 1011.0 |
| 20260905230010 | 98 | 341 | 1.7 | 4.3 | 0.00 | 0.00 | 0.00 | 42 | 1011.0 |
| 20260905225511 | 98 | 265 | 1.7 | 4.3 | 0.00 | 0.00 | 0.00 | 41 | 1011.1 |
| 20260905225010 | 98 | 324 | 0.0 | 5.2 | 0.00 | 0.00 | 0.00 | 40 | 1011.1 |
| 20260905224518 | 99 | 239 | 1.7 | 4.3 | 0.00 | 0.00 | 0.00 | 39 | 1011.1 |
| 20260905224013 | 99 | 264 | 0.9 | 3.5 | 0.00 | 0.00 | 0.00 | 40 | 1011.2 |
| 20260905223513 | 99 | 293 | 0.9 | 5.2 | 0.00 | 0.00 | 0.00 | 40 | 1011.2 |
| 20260905223025 | 99 | 301 | 1.7 | 6.1 | 0.00 | 0.00 | 0.00 | 40 | 1011.3 |
| 20260905222515 | 99 | 320 | 1.7 | 6.1 | 0.00 | 0.00 | 0.00 | 40 | 1011.2 |
| 20260905222015 | 99 | 320 | 0.9 | 7.0 | 0.00 | 0.00 | 0.00 | 40 | 1011.2 |
| 20260905221532 | 99 | 270 | 2.6 | 7.8 | 0.00 | 0.00 | 0.00 | 40 | 1011.2 |
| 20260905221017 | 99 | 265 | 2.6 | 7.8 | 0.00 | 0.00 | 0.00 | 39 | 1011.1 |
| 20260905220518 | 99 | 266 | 1.7 | 8.7 | 0.00 | 0.00 | 0.00 | 41 | 1011.1 |
| 20260905220030 | 99 | 342 | 2.6 | 8.7 | 0.00 | 0.00 | 0.00 | 41 | 1011.1 |
| 20260905215517 | 99 | 311 | 2.6 | 7.8 | 0.00 | 0.00 | 0.00 | 41 | 1011.2 |
| 20260905215008 | 99 | 326 | 3.5 | 7.8 | 0.00 | 0.00 | 0.00 | 41 | 1011.2 |
| 20260905214518 | 99 | 250 | 5.2 | 7.8 | 0.00 | 0.00 | 0.00 | 41 | 1011.1 |
| 20260905214010 | 99 | 261 | 1.7 | 7.8 | 0.00 | 0.00 | 0.00 | 40 | 1011.1 |
| 20260905213513 | 99 | 311 | 2.6 | 7.8 | 0.00 | 0.00 | 0.00 | 41 | 1011.1 |
| 20260905213023 | 100 | 254 | 2.6 | 8.7 | 0.00 | 0.00 | 0.00 | 40 | 1011.2 |
| 20260905212516 | 100 | 266 | 3.5 | 8.7 | 0.00 | 0.00 | 0.00 | 40 | 1011.3 |
| 20260905212013 | 99 | 229 | 2.6 | 7.8 | 0.00 | 0.00 | 0.00 | 41 | 1011.2 |
| 20260905211529 | 99 | 332 | 4.3 | 7.8 | 0.00 | 0.00 | 0.00 | 40 | 1011.3 |
| 20260905211015 | 100 | 280 | 3.5 | 8.7 | 0.00 | 0.00 | 0.00 | 40 | 1011.4 |
| 20260905210519 | 99 | 252 | 3.5 | 8.7 | 0.00 | 0.00 | 0.00 | 42 | 1011.3 |
| 20260905210031 | 99 | 303 | 3.5 | 7.8 | 0.00 | 0.00 | 0.00 | 42 | 1011.5 |
| 20260905205503 | 99 | 246 | 0.0 | 6.1 | 0.00 | 0.00 | 0.00 | 42 | 1011.6 |
| 20260905205004 | 100 | 316 | 1.7 | 6.1 | 0.00 | 0.00 | 0.00 | 41 | 1011.6 |
| 20260905204508 | 100 | 311 | 1.7 | 6.1 | 0.00 | 0.00 | 0.00 | 42 | 1011.5 |
| 20260905204003 | 100 | 311 | 3.5 | 6.1 | 0.00 | 0.00 | 0.00 | 43 | 1011.6 |
| 20260905203504 | 99 | 231 | 0.9 | 5.2 | 0.00 | 0.00 | 0.00 | 44 | 1011.7 |
| 20260905203004 | 99 | 343 | 0.9 | 7.0 | 0.00 | 0.00 | 0.00 | 42 | 1011.8 |
| 20260905202502 | 100 | 303 | 2.6 | 7.0 | 0.00 | 0.00 | 0.00 | 43 | 1012.0 |
| 20260905202003 | 99 | 357 | 1.7 | 6.1 | 0.00 | 0.00 | 0.00 | 42 | 1012.0 |
| 20260905201508 | 99 | 195 | 2.6 | 10.4 | 0.00 | 0.00 | 0.00 | 43 | 1012.1 |
| 20260905201001 | 99 | 303 | 6.1 | 10.4 | 0.00 | 0.00 | 0.00 | 42 | 1012.1 |
| 20260905200506 | 99 | 287 | 3.5 | 7.8 | 0.00 | 0.00 | 0.00 | 44 | 1012.2 |
| 20260905200006 | 99 | 215 | 1.7 | 7.8 | 0.00 | 0.00 | 0.00 | 45 | 1012.4 |
| 20260905195502 | 99 | 238 | 3.5 | 7.8 | 0.00 | 0.00 | 0.00 | 43 | 1012.6 |
| 20260905195008 | 100 | 195 | 1.7 | 7.0 | 0.00 | 0.00 | 0.00 | 43 | 1012.6 |
| 20260905194504 | 99 | 264 | 2.6 | 7.0 | 0.00 | 0.00 | 0.00 | 44 | 1012.6 |
| 20260905194003 | 99 | 328 | 2.6 | 7.0 | 0.00 | 0.00 | 0.00 | 43 | 1012.6 |
| 20260905193502 | 99 | 349 | 3.5 | 7.0 | 0.00 | 0.00 | 0.00 | 44 | 1012.7 |
| 20260905193007 | 99 | 311 | 3.5 | 7.0 | 0.00 | 0.00 | 0.00 | 44 | 1012.7 |
| 20260905192504 | 99 | 8 | 1.7 | 5.2 | 0.00 | 0.00 | 0.00 | 44 | 1012.7 |
| 20260905192007 | 98 | 303 | 1.7 | 7.0 | 0.00 | 0.00 | 0.00 | 45 | 1012.8 |
| 20260905191504 | 98 | 232 | 3.5 | 8.7 | 0.00 | 0.00 | 0.00 | 44 | 1012.8 |
| 20260905191004 | 99 | 176 | 3.5 | 8.7 | 0.00 | 0.00 | 0.00 | 43 | 1012.9 |
| 20260905190503 | 99 | 238 | 1.7 | 6.1 | 0.00 | 0.00 | 0.00 | 44 | 1012.9 |
| 20260905190006 | 98 | 303 | 1.7 | 6.1 | 0.00 | 0.00 | 0.00 | 44 | 1013.0 |
| 20260905185505 | 98 | 43 | 1.7 | 5.2 | 0.00 | 0.00 | 0.00 | 45 | 1013.1 |
| 20260905185002 | 98 | 276 | 0.9 | 8.7 | 0.00 | 0.00 | 0.00 | 44 | 1013.2 |
| 20260905184511 | 98 | 301 | 3.5 | 8.7 | 0.00 | 0.00 | 0.00 | 43 | 1013.2 |
| 20260905184003 | 98 | 234 | 2.6 | 7.0 | 0.00 | 0.00 | 0.00 | 44 | 1013.4 |
| 20260905183503 | 98 | 316 | 2.6 | 4.3 | 0.00 | 0.00 | 0.00 | 45 | 1013.4 |
| 20260905183014 | 97 | 217 | 0.9 | 4.3 | 0.00 | 0.00 | 0.00 | 46 | 1013.5 |
| 20260905182503 | 97 | 351 | 3.5 | 5.2 | 0.00 | 0.00 | 0.00 | 46 | 1013.7 |
| 20260905182006 | 98 | 311 | 2.6 | 7.0 | 0.00 | 0.00 | 0.00 | 46 | 1013.8 |
| 20260905181508 | 97 | 238 | 1.7 | 7.0 | 0.00 | 0.00 | 0.00 | 45 | 1013.8 |
| 20260905181006 | 97 | 276 | 2.6 | 7.0 | 0.00 | 0.00 | 0.00 | 47 | 1013.8 |
| 20260905180507 | 97 | 328 | 2.6 | 7.0 | 0.00 | 0.00 | 0.00 | 45 | 1013.9 |
| 20260905180004 | 97 | 251 | 3.5 | 6.1 | 0.00 | 0.00 | 0.00 | 45 | 1013.9 |
| 20260905175503 | 97 | 303 | 3.5 | 7.0 | 0.00 | 0.00 | 0.00 | 46 | 1013.9 |
| 20260905175004 | 97 | 250 | 2.6 | 7.0 | 0.00 | 0.00 | 0.00 | 47 | 1014.0 |
| 20260905174509 | 97 | 149 | 0.9 | 3.5 | 0.00 | 0.00 | 0.00 | 46 | 1014.1 |
| 20260905174006 | 98 | 91 | 0.9 | 3.5 | 0.00 | 0.00 | 0.00 | 48 | 1014.1 |
| 20260905173506 | 97 | 226 | 0.9 | 3.5 | 0.00 | 0.00 | 0.00 | 50 | 1014.1 |
| 20260905173009 | 97 | 107 | 0.9 | 3.5 | 0.00 | 0.00 | 0.00 | 49 | 1014.1 |
| 20260905172503 | 96 | 320 | 1.7 | 2.6 | 0.00 | 0.00 | 0.00 | 48 | 1014.1 |
| 20260905172003 | 96 | 266 | 0.9 | 5.2 | 0.00 | 0.00 | 0.00 | 48 | 1014.1 |
| 20260905171508 | 95 | 110 | 0.9 | 5.2 | 0.00 | 0.00 | 0.00 | 49 | 1014.2 |
| 20260905171008 | 96 | 337 | 1.7 | 5.2 | 0.00 | 0.00 | 0.00 | 49 | 1014.3 |
| 20260905170504 | 96 | 333 | 1.7 | 4.3 | 0.00 | 0.00 | 0.00 | 49 | 1014.3 |
| 20260905170008 | 96 | 298 | 1.7 | 4.3 | 0.00 | 0.00 | 0.00 | 49 | 1014.4 |
| 20260905165506 | 96 | 268 | 1.7 | 3.5 | 0.00 | 0.00 | 0.00 | 51 | 1014.4 |
| 20260905165002 | 95 | 291 | 1.7 | 3.5 | 0.00 | 0.00 | 0.00 | 53 | 1014.4 |
| 20260905164505 | 94 | 360 | 0.9 | 2.6 | 0.00 | 0.00 | 0.00 | 52 | 1014.4 |
| 20260905164004 | 94 | 279 | 0.9 | 5.2 | 0.00 | 0.00 | 0.00 | 51 | 1014.6 |
| 20260905163510 | 94 | 355 | 0.9 | 5.2 | 0.00 | 0.00 | 0.00 | 53 | 1014.6 |
| 20260905163007 | 93 | 320 | 0.9 | 3.5 | 0.00 | 0.00 | 0.00 | 54 | 1014.7 |
| 20260905162504 | 93 | 201 | 0.9 | 4.3 | 0.00 | 0.00 | 0.00 | 56 | 1014.7 |
| 20260905162005 | 93 | 228 | 2.6 | 4.3 | 0.00 | 0.00 | 0.00 | 55 | 1014.8 |
| 20260905161510 | 92 | 341 | 0.9 | 4.3 | 0.00 | 0.00 | 0.00 | 56 | 1014.9 |
| 20260905161006 | 91 | 235 | 0.9 | 4.3 | 0.00 | 0.00 | 0.00 | 57 | 1015.0 |
| 20260905160503 | 91 | 28 | 0.9 | 5.2 | 0.00 | 0.00 | 0.00 | 57 | 1015.1 |
| 20260905160009 | 91 | 202 | 0.9 | 6.1 | 0.00 | 0.00 | 0.00 | 61 | 1015.1 |
| 20260905155508 | 90 | 316 | 1.7 | 6.1 | 0.00 | 0.00 | 0.00 | 61 | 1015.2 |
| 20260905155008 | 90 | 246 | 2.6 | 4.3 | 0.00 | 0.00 | 0.00 | 62 | 1015.2 |
| 20260905154509 | 89 | 194 | 1.7 | 3.5 | 0.00 | 0.00 | 0.00 | 62 | 1015.2 |
| 20260905154003 | 89 | 5 | 1.7 | 3.5 | 0.00 | 0.00 | 0.00 | 64 | 1015.3 |
| 20260905153506 | 88 | 268 | 1.7 | 4.3 | 0.00 | 0.00 | 0.00 | 67 | 1015.4 |
| 20260905153007 | 88 | 250 | 2.6 | 4.3 | 0.00 | 0.00 | 0.00 | 69 | 1015.4 |
| 20260905152507 | 88 | 239 | 0.9 | 3.5 | 0.00 | 0.00 | 0.00 | 69 | 1015.4 |
| 20260905152010 | 87 | 197 | 0.9 | 3.5 | 0.00 | 0.00 | 0.00 | 70 | 1015.4 |
| 20260905151510 | 86 | 209 | 0.9 | 3.5 | 0.00 | 0.00 | 0.00 | 72 | 1015.4 |
| 20260905151010 | 86 | 245 | 1.7 | 3.5 | 0.00 | 0.00 | 0.00 | 72 | 1015.4 |
| 20260905150507 | 85 | 235 | 1.7 | 3.5 | 0.00 | 0.00 | 0.00 | 73 | 1015.4 |
| 20260905150010 | 85 | 253 | 0.9 | 2.6 | 0.00 | 0.00 | 0.00 | 73 | 1015.4 |
| 20260905145505 | 85 | 326 | 0.9 | 3.5 | 0.00 | 0.00 | 0.00 | 74 | 1015.5 |
| 20260905145010 | 85 | 16 | 0.9 | 3.5 | 0.00 | 0.00 | 0.00 | 76 | 1015.6 |
| 20260905144511 | 84 | 247 | 1.7 | 2.6 | 0.00 | 0.00 | 0.00 | 77 | 1015.6 |
| 20260905144007 | 84 | 264 | 0.0 | 2.6 | 0.00 | 0.00 | 0.00 | 77 | 1015.6 |
| 20260905143512 | 84 | 233 | 0.9 | 1.7 | 0.00 | 0.00 | 0.00 | 79 | 1015.6 |
| 20260905143008 | 83 | 156 | 0.0 | 1.7 | 0.00 | 0.00 | 0.00 | 80 | 1015.5 |
| 20260905142506 | 82 | 192 | 0.0 | 1.7 | 0.00 | 0.00 | 0.00 | 80 | 1015.6 |
| 20260905142006 | 82 | 264 | 0.9 | 1.7 | 0.00 | 0.00 | 0.00 | 81 | 1015.6 |
| 20260905141510 | 82 | 230 | 0.0 | 1.7 | 0.00 | 0.00 | 0.00 | 82 | 1015.7 |
| 20260905141009 | 81 | 230 | 0.9 | 1.7 | 0.00 | 0.00 | 0.00 | 84 | 1015.6 |
| 20260905140506 | 81 | 262 | 0.0 | 0.9 | 0.00 | 0.00 | 0.00 | 84 | 1015.7 |
| 20260905140012 | 80 | 262 | 0.0 | 1.7 | 0.00 | 0.00 | 0.00 | 83 | 1015.7 |
| 20260905135507 | 80 | 262 | 0.0 | 1.7 | 0.00 | 0.00 | 0.00 | 84 | 1015.7 |
| 20260905135010 | 80 | 262 | 0.0 | 1.7 | 0.00 | 0.00 | 0.00 | 84 | 1015.7 |
| 20260905134511 | 80 | 262 | 0.0 | 1.7 | 0.00 | 0.00 | 0.00 | 84 | 1015.7 |
| 20260905134009 | 80 | 262 | 0.0 | 1.7 | 0.00 | 0.00 | 0.00 | 84 | 1015.6 |
| 20260905133507 | 80 | 262 | 0.0 | 1.7 | 0.00 | 0.00 | 0.00 | 85 | 1015.6 |
| 20260905133017 | 79 | 268 | 0.0 | 1.7 | 0.00 | 0.00 | 0.00 | 85 | 1015.7 |
| 20260905132508 | 79 | 268 | 0.0 | 1.7 | 0.00 | 0.00 | 0.00 | 85 | 1015.8 |
| 20260905132005 | 79 | 270 | 0.0 | 1.7 | 0.00 | 0.00 | 0.00 | 85 | 1015.8 |
| 20260905131510 | 79 | 303 | 0.0 | 1.7 | 0.00 | 0.00 | 0.00 | 86 | 1015.8 |
| 20260905131007 | 78 | 311 | 0.0 | 0.9 | 0.00 | 0.00 | 0.00 | 85 | 1015.8 |
| 20260905130510 | 78 | 4 | 0.0 | 0.0 | 0.00 | 0.00 | 0.00 | 86 | 1015.7 |
| 20260905130017 | 78 | 4 | 0.0 | 1.7 | 0.00 | 0.00 | 0.00 | 85 | 1015.8 |
| 20260905125510 | 78 | 4 | 0.0 | 1.7 | 0.00 | 0.00 | 0.00 | 85 | 1015.8 |
| 20260905125010 | 78 | 4 | 0.0 | 0.0 | 0.00 | 0.00 | 0.00 | 85 | 1015.8 |
| 20260905124514 | 77 | 4 | 0.0 | 0.0 | 0.00 | 0.00 | 0.00 | 85 | 1015.8 |
| 20260905124010 | 77 | 4 | 0.0 | 0.0 | 0.00 | 0.00 | 0.00 | 86 | 1015.8 |
| 20260905123508 | 77 | 4 | 0.0 | 0.0 | 0.00 | 0.00 | 0.00 | 86 | 1015.7 |
| 20260905123014 | 77 | 4 | 0.0 | 0.0 | 0.00 | 0.00 | 0.00 | 87 | 1015.7 |
| 20260905122510 | 76 | 4 | 0.0 | 0.0 | 0.00 | 0.00 | 0.00 | 87 | 1015.6 |
| 20260905122010 | 76 | 4 | 0.0 | 0.0 | 0.00 | 0.00 | 0.00 | 87 | 1015.6 |
| 20260905121515 | 76 | 4 | 0.0 | 0.0 | 0.00 | 0.00 | 0.00 | 87 | 1015.5 |
| 20260905121012 | 76 | 4 | 0.0 | 0.0 | 0.00 | 0.00 | 0.00 | 88 | 1015.5 |